[[{"header":{"parameterUnit":"m.s-1","parameterCategory":1,"la1":30.2991,"la2":30.254,"lo1":-89.0895,"lo2":-89.0444,"dy":0.0017,"dx":0.0017,"nx":28,"ny":28,"refTime":"2023-08-14T21:00:00:Z","depth":0,"parameterNumber":2,"parameterNumberName":"U-component_of_WINDS"},"data":[0,0,0,0,0,0,0,0,0,0,0,0,0,0,0,0,0,0,0,0,0,0,0,0,0,0,0,0,0,0,0,0,0,0,0,0,0,0,0,0,0,0,0,0,0,0,0,0,0,0,0,0,0,0,0,0,0,0,2.4929,2.4931,0,2.5148,2.5151,2.5153,2.5213,2.5211,2.521,2.5209,2.5438,2.5445,2.5452,0,0,0,0,0,0,0,0,0,0,0,0,0,2.4566,2.4572,2.4929,2.4931,2.4934,2.5148,2.5151,2.5154,2.5213,2.5211,2.521,2.5208,2.5436,2.5444,2.5453,0,0,0,0,0,0,0,0,0,0,0,0,0,2.4748,2.4574,2.4928,2.4989,2.4997,2.5147,2.5151,2.5155,2.5213,2.5211,2.5209,2.5208,2.5433,2.5443,2.5454,2.5561,0,0,2.5488,2.5492,0,0,0,0,0,0,0,0,2.4738,2.4762,2.4978,2.4985,2.4994,2.5151,2.5107,2.5291,2.5214,2.5131,2.5209,2.5207,2.5344,2.5362,2.5408,2.5572,2.5581,2.5489,2.5495,2.55,2.5503,0,0,0,0,0,0,0,2.4725,2.4753,2.5016,2.4981,2.4991,2.5008,2.5031,2.5142,2.5246,2.5138,2.5143,2.5168,2.5349,2.5397,2.5414,2.5585,2.5488,2.5498,2.5505,2.5509,2.585,2.5852,0,0,0,0,0,0,2.4701,2.4742,2.5009,2.5022,2.4858,2.5016,2.5042,2.5103,2.5245,2.5265,2.5169,2.517,2.538,2.5401,2.5422,2.5558,2.55,2.551,2.5516,2.5848,2.585,2.5853,0,0,0,0,0,0,2.4693,2.4725,2.5,2.4883,2.492,2.5024,2.5091,2.5108,2.5157,2.5269,2.5288,2.52,2.5379,2.5407,2.5526,2.5567,2.5515,2.5525,2.5845,2.5848,2.5852,2.583,0,0,0,0,0,0,2.4683,2.4721,2.4761,2.4884,2.4926,2.5098,2.5094,2.5114,2.5175,2.5178,2.5302,2.5321,2.5379,2.551,2.5537,2.5581,2.5534,2.5841,2.5846,2.5851,2.5827,2.5832,2.5836,0,0,0,0,0,2.467,2.4747,2.4763,2.4795,2.4978,2.5101,2.5125,2.5189,2.5178,2.522,2.5293,2.5317,2.5558,2.5521,2.5553,2.5601,2.5839,2.5845,2.585,2.5825,2.5831,2.5836,0,0,0,0,0,0,2.4627,2.4764,2.4783,2.4902,2.4989,2.511,2.5165,2.5193,2.5286,2.5285,2.5362,2.539,2.5505,2.5565,2.5522,2.5713,2.5699,2.5711,2.5669,2.5676,2.568,2.5664,2.5543,0,0,0,0,0,2.4632,2.4718,2.4834,2.4928,2.497,2.506,2.5116,2.5158,2.5252,2.529,2.5371,2.5462,2.5559,2.5621,2.5715,2.5836,2.5866,2.5885,2.589,2.5893,2.5903,2.5974,2.5984,2.5872,2.5871,2.5871,0,0,2.4642,2.4727,2.4777,2.4921,2.4994,2.5084,2.5091,2.5185,2.5254,2.5305,2.5422,2.5485,2.5593,2.5714,2.5771,2.5767,2.594,2.59,2.5902,2.591,2.598,2.5991,2.6,2.5875,2.5875,2.5874,0,0,2.4706,2.4779,2.4866,2.4939,2.5048,2.5108,2.5129,2.5246,2.529,2.5409,2.545,2.5533,2.5697,2.5773,2.5832,2.5928,2.5955,2.5957,2.5981,2.6049,2.6058,2.6066,2.6102,2.6114,2.5966,2.5966,2.5966,0,2.4706,2.4841,2.4908,2.5001,2.5064,2.5114,2.5204,2.5272,2.5407,2.545,2.5444,2.5652,2.5728,2.5868,2.5892,2.5938,2.5966,2.5943,2.6051,2.606,2.6069,2.6104,2.6117,2.5966,2.5966,2.5966,2.5966,0,2.4836,2.493,2.4988,2.5116,2.5186,2.5277,2.5359,2.5422,2.5459,2.552,2.5642,2.5735,2.585,2.5887,2.5924,2.6034,2.6028,2.6035,2.6023,2.6078,2.6113,2.6126,2.5965,2.5966,2.5966,2.5966,0,0,2.4879,2.5044,2.5065,2.5125,2.525,2.5325,2.542,2.5532,2.5585,2.5677,2.576,2.5899,2.5907,2.5975,2.6021,2.6081,2.6153,2.6081,2.6085,2.6092,2.6282,2.6277,2.6291,2.6171,2.6174,2.6176,2.6274,0,2.4961,2.513,2.5193,2.5333,2.5422,2.5471,2.5554,2.5641,2.5701,2.5787,2.5854,2.5952,2.5954,2.5996,2.6057,2.6131,2.6192,2.6125,2.6251,2.6255,2.6223,2.6309,2.6303,2.639,2.6287,2.629,2.6291,0,2.5078,2.5171,2.5319,2.5435,2.5475,2.5548,2.5658,2.5738,2.5839,2.5879,2.5955,2.5998,2.6102,2.6083,2.6227,2.618,2.6236,2.628,2.6285,2.63,2.6277,2.6327,2.6419,2.6432,2.6313,2.6311,2.631,0,2.5096,2.5259,2.5369,2.5419,2.5557,2.5608,2.5668,2.5767,2.5831,2.5927,2.597,2.6076,2.6135,2.6218,2.629,2.6269,2.6429,2.6415,2.6466,2.6465,2.6498,2.6495,2.6601,2.6532,2.6532,2.6532,2.6531,0,2.5181,2.527,2.5379,2.5447,2.5549,2.5623,2.5722,2.5786,2.5874,2.5957,2.6006,2.6083,2.6172,2.6262,2.6318,2.6431,2.6457,2.6493,2.6508,2.6489,2.6485,2.6527,2.6524,2.6535,2.6534,2.6534,2.6533,0,2.5218,2.5295,2.5419,2.554,2.5573,2.5643,2.5748,2.5817,2.5879,2.5984,2.6012,2.6112,2.6219,2.6299,2.6438,2.6476,2.6597,2.6611,2.6562,2.657,2.6617,2.6612,2.6755,2.6778,2.6692,2.6693,2.6693,0,2.5267,2.5337,2.5466,2.5525,2.5585,2.5678,2.5744,2.582,2.5887,2.6008,2.6063,2.6174,2.6267,2.6437,2.6522,2.663,2.6648,2.6691,2.6664,2.6645,2.665,2.6645,2.6654,2.6694,2.6695,2.6695,2.6696,0,2.5347,2.5382,2.5475,2.5581,2.5658,2.5746,2.5834,2.588,2.5972,2.6045,2.6155,2.6227,2.637,2.648,2.6597,2.6661,2.6695,2.6703,2.6721,2.6704,2.6673,2.6692,2.6574,2.67,2.6699,2.6699,2.6699,2.6699,2.5394,2.5459,2.556,2.5662,2.5737,2.5819,2.589,2.5962,2.6055,2.6176,2.6216,2.6331,2.6433,2.6592,2.6658,2.675,2.6749,2.6775,2.6781,2.6787,2.6786,2.6658,2.6771,2.6771,2.6771,2.6771,2.6771,0,2.5477,2.5545,2.5638,2.5761,2.5842,2.5865,2.5965,2.6032,2.6131,2.6223,2.6314,2.6442,2.655,2.6644,2.6756,2.6812,2.6831,2.6839,2.6837,2.6851,2.678,2.6754,2.6823,2.6823,2.6823,2.6823,2.6823,2.6823,2.553,2.5642,2.5689,2.584,2.5908,2.602,2.6076,2.6153,2.6226,2.6367,2.6456,2.6517,2.6611,2.6731,2.6831,2.6857,2.6896,2.6902,2.6931,2.6862,2.6856,2.685,2.6826,2.6909,2.6909,2.6995,2.6996,2.6996]},{"header":{"parameterUnit":"m.s-1","parameterCategory":1,"la1":30.2991,"la2":30.254,"lo1":-89.0895,"lo2":-89.0444,"dy":0.0017,"dx":0.0017,"nx":28,"ny":28,"refTime":"2023-08-14T21:00:00:Z","depth":0,"parameterNumber":3,"parameterNumberName":"V-component_of_WINDS"},"data":[0,0,0,0,0,0,0,0,0,0,0,0,0,0,0,0,0,0,0,0,0,0,0,0,0,0,0,0,0,0,0,0,0,0,0,0,0,0,0,0,0,0,0,0,0,0,0,0,0,0,0,0,0,0,0,0,0,0,4.9572,4.9575,0,4.9854,4.9858,4.9861,4.9845,4.984,4.9836,4.9833,5.0116,5.0127,5.0139,0,0,0,0,0,0,0,0,0,0,0,0,0,4.901,4.9021,4.9572,4.9575,4.9579,4.9854,4.9858,4.9862,4.9845,4.984,4.9835,4.9831,5.0113,5.0126,5.014,0,0,0,0,0,0,0,0,0,0,0,0,0,4.9269,4.9024,4.9571,4.9604,4.961,4.9853,4.9858,4.9863,4.9846,4.984,4.9834,4.9828,5.0108,5.0125,5.0141,5.0369,0,0,5.0193,5.0201,0,0,0,0,0,0,0,0,4.9255,4.929,4.9596,4.9602,4.9609,4.9808,4.9764,5.0032,4.9848,4.9756,4.9832,4.9825,5.0018,5.0042,5.0109,5.0382,5.0394,5.0195,5.0205,5.0213,5.0217,0,0,0,0,0,0,0,4.9237,4.9278,4.9683,4.96,4.9608,4.9602,4.9632,4.9815,4.9918,4.9764,4.9763,4.9797,5.0021,5.0092,5.0115,5.0398,5.0194,5.021,5.022,5.0227,5.0869,5.0875,0,0,0,0,0,0,4.9213,4.9263,4.9674,4.9692,4.9413,4.9617,4.9651,4.975,4.9916,4.9935,4.9802,4.9796,5.0066,5.0095,5.0125,5.0401,5.0212,5.0228,5.0238,5.0862,5.087,5.0878,0,0,0,0,0,0,4.9201,4.925,4.9663,4.9478,4.953,4.9633,4.9745,4.9759,4.9831,4.9945,4.9963,4.9857,5.0062,5.0101,5.0308,5.041,5.0236,5.0252,5.0854,5.0865,5.0874,5.0955,0,0,0,0,0,0,4.9185,4.9245,4.9335,4.948,4.954,4.9844,4.9752,4.9769,4.9861,4.9855,5.0001,5.0019,5.0061,5.0283,5.0325,5.0431,5.0265,5.0845,5.0859,5.0871,5.0943,5.0966,5.0986,0,0,0,0,0,4.9165,4.9346,4.934,4.9389,4.9654,4.985,4.9884,4.993,4.9869,4.9959,5.0031,5.0015,5.0392,5.0304,5.0351,5.0464,5.0839,5.0855,5.087,5.0934,5.0962,5.0986,0,0,0,0,0,0,4.921,4.9366,4.9361,4.9595,4.9709,4.9847,4.9962,4.9958,5.0092,5.008,5.0129,5.0162,5.0369,5.0437,5.0336,5.0691,5.0607,5.0633,5.064,5.0667,5.0688,5.0668,5.0279,0,0,0,0,0,4.9247,4.9395,4.9522,4.9716,4.9774,4.9858,4.9945,4.997,5.009,5.0138,5.0226,5.0342,5.0486,5.058,5.0719,5.0952,5.0982,5.1052,5.1074,5.1091,5.1113,5.1238,5.127,5.0928,5.0928,5.0928,0,0,4.9325,4.9429,4.9519,4.9728,4.982,4.997,4.9899,5.0061,5.0172,5.0162,5.0364,5.0432,5.0563,5.0783,5.0885,5.0846,5.1213,5.111,5.1123,5.1136,5.1257,5.129,5.1318,5.0939,5.0937,5.0935,0,0,4.9545,4.9639,4.981,4.9903,5.0043,5.0097,5.0138,5.0276,5.0322,5.0524,5.0519,5.065,5.0898,5.0992,5.1072,5.1322,5.1311,5.1366,5.1478,5.16,5.1627,5.1651,5.174,5.1771,5.1387,5.1387,5.1387,0,4.9624,4.9853,4.9898,5.0061,5.0152,5.015,5.0322,5.0409,5.0587,5.0648,5.0602,5.0912,5.1001,5.1242,5.1303,5.1368,5.1414,5.135,5.162,5.1644,5.1668,5.1752,5.1786,5.1393,5.1392,5.1392,5.1391,0,4.9942,5.01,5.0221,5.0394,5.0498,5.0664,5.0732,5.0831,5.0846,5.0903,5.1108,5.1213,5.1373,5.1431,5.1447,5.1674,5.1646,5.1609,5.1527,5.1705,5.1786,5.1819,5.1401,5.1399,5.1397,5.1396,0,0,5.0201,5.0395,5.0439,5.0516,5.0669,5.0791,5.0955,5.1112,5.1196,5.1317,5.1455,5.1663,5.1629,5.172,5.1745,5.1852,5.2042,5.1803,5.1806,5.1843,5.2297,5.2324,5.2361,5.2035,5.2041,5.2046,5.2286,0,5.0436,5.0731,5.0775,5.1034,5.1179,5.1177,5.132,5.1427,5.1484,5.1613,5.1675,5.1822,5.1767,5.1822,5.1927,5.1997,5.2134,5.198,5.2162,5.2168,5.213,5.2403,5.2434,5.2655,5.2317,5.2323,5.2327,0,5.0751,5.0882,5.1155,5.1286,5.1349,5.1477,5.1623,5.1747,5.1867,5.1901,5.2001,5.2012,5.2179,5.2088,5.2318,5.2212,5.2288,5.2333,5.2342,5.2362,5.2259,5.243,5.2726,5.276,5.2377,5.2373,5.2369,0,5.0911,5.1155,5.135,5.1417,5.1574,5.1664,5.1733,5.1848,5.1938,5.2065,5.2124,5.2267,5.2346,5.2455,5.2504,5.2433,5.273,5.2643,5.2761,5.276,5.2825,5.2821,5.3138,5.2873,5.2873,5.2872,5.2871,0,5.1169,5.1337,5.1425,5.1545,5.1731,5.1777,5.1959,5.2025,5.2126,5.2257,5.2263,5.2384,5.2441,5.257,5.2609,5.2792,5.2828,5.2858,5.2866,5.2859,5.2855,5.291,5.2896,5.2881,5.2879,5.2877,5.2876,0,5.1381,5.1447,5.1659,5.1791,5.1827,5.1959,5.207,5.2184,5.2239,5.2404,5.2445,5.2531,5.2683,5.2742,5.2928,5.2953,5.3165,5.3161,5.3126,5.3128,5.3243,5.3231,5.3608,5.3659,5.3359,5.3362,5.3364,0,5.1543,5.1672,5.1816,5.1905,5.1978,5.2121,5.2213,5.2262,5.2358,5.2503,5.2599,5.2752,5.2877,5.3119,5.3197,5.3338,5.3337,5.3459,5.3358,5.3346,5.3339,5.3331,5.3344,5.3478,5.3481,5.3484,5.3486,0,5.1822,5.1847,5.1982,5.2128,5.2238,5.2355,5.2468,5.2539,5.2605,5.2711,5.2868,5.2965,5.3154,5.3304,5.3449,5.3517,5.3512,5.3516,5.3551,5.3545,5.3519,5.3534,5.3177,5.3508,5.3506,5.3504,5.3503,5.3502,5.2013,5.2127,5.2247,5.2396,5.2486,5.2591,5.2705,5.2773,5.2906,5.3065,5.3085,5.3252,5.3365,5.356,5.3633,5.3763,5.3731,5.3781,5.3794,5.3806,5.3814,5.3497,5.3789,5.3789,5.3788,5.3788,5.3787,0,5.2292,5.2369,5.2505,5.2664,5.278,5.2766,5.2889,5.2987,5.3135,5.3242,5.3364,5.3542,5.3687,5.3775,5.392,5.4007,5.4008,5.4043,5.4038,5.4053,5.3835,5.3791,5.404,5.404,5.4039,5.4039,5.4039,5.4039,5.2452,5.2643,5.2682,5.2917,5.2991,5.3157,5.3228,5.3324,5.3409,5.3609,5.373,5.3787,5.3885,5.4036,5.4168,5.4189,5.4242,5.4281,5.4299,5.4095,5.4069,5.4044,5.4002,5.4292,5.4292,5.4507,5.4509,5.451]}]]